Simultaneous Nadir Overpasses (SNOs) Predictions

Prediction of SNOs between NOAA-15 and METOP-C Satellite Orbit:

Table of predicted SNOs for the next 14.0 days since TLE Epoch: 1/26/2019
Index Date (NOAA-15) Time (NOAA-15) Lat,Lon (NOAA-15) SZA (NOAA-15 ) Date (METOP-C) Time (METOP-C) Lat,Lon (METOP-C) SZA (METOP-C ) Distance(km) Time Diff (sec)
1 02/01/2019 02:37:05 80.63, 175.08 99.08 02/01/2019 02:36:01 80.60, 170.73 98.70 78.93 64
2 02/01/2019 03:27:43 -80.74, -19.49 80.99 02/01/2019 03:26:36 -80.75, -19.49 81.00 1.29 67
3 02/01/2019 04:18:14 80.75, 147.69 99.00 02/01/2019 04:17:16 80.74, 147.67 98.98 1.07 58
4 02/01/2019 05:08:46 -80.75, -44.81 81.01 02/01/2019 05:07:58 -80.75, -44.95 81.03 2.47 48
5 02/01/2019 05:59:17 80.76, 122.37 98.98 02/01/2019 05:58:37 80.76, 122.56 98.98 3.44 40
6 02/01/2019 06:49:49 -80.75, -70.14 81.03 02/01/2019 06:49:19 -80.76, -70.07 81.03 1.72 30
7 02/01/2019 07:40:20 80.76, 97.05 98.96 02/01/2019 07:39:59 80.75, 97.10 98.95 1.44 21
8 02/01/2019 08:30:52 -80.75, -95.46 81.05 02/01/2019 08:30:41 -80.75, -95.53 81.06 1.18 11
9 02/01/2019 09:21:22 80.74, 72.08 98.95 02/01/2019 09:21:20 80.76, 71.98 98.96 2.72 2
10 02/01/2019 10:11:55 -80.76,-120.79 81.07 02/01/2019 10:12:02 -80.77,-120.64 81.05 2.77 7
11 02/01/2019 11:02:26 80.77, 46.40 98.92 02/01/2019 11:02:42 80.76, 46.52 98.92 2.37 16
12 02/01/2019 11:52:58 -80.76,-146.11 81.10 02/01/2019 11:53:24 -80.76,-146.11 81.09 0.23 26
13 02/01/2019 12:43:28 80.75, 21.43 98.90 02/01/2019 12:44:03 80.77, 21.41 98.93 2.12 35
14 02/01/2019 13:34:01 -80.76,-171.44 81.12 02/01/2019 13:34:46 -80.75,-171.57 81.12 2.70 45
15 02/01/2019 14:24:31 80.75, -3.89 98.88 02/01/2019 14:25:25 80.76, -4.06 98.89 3.20 54
16 02/01/2019 15:15:04 -80.77, 163.24 81.14 02/01/2019 15:16:07 -80.76, 163.32 81.12 1.47 63




NCC Satellite Simultaneous Nadir Overpasses (SNOs) Prediction Service
